Regional Weather Roundup
Issued by NWS

Home | Current Version | Previous Version | Graphics & Text | Print | Product List | Glossary Off
Versions: 1 2 3 4 5 6 7 8 9 10 11 12 13 14 15 16 17 18 19 20 21 22 23 24 25 26 27 28 29 30 31 32 33 34 35 36 37 38 39 40 41 42 43 44 45 46 47 48 49 50

664
ASUS43 KMKX 281221
RWRWI

WISCONSIN REGIONAL WEATHER ROUNDUP
NATIONAL WEATHER SERVICE MILWAUKEE/SULLIVAN WI
700 AM CDT THU APR 28 2016

NOTE: "FAIR" INDICATES FEW OR NO CLOUDS BELOW 12,000 FEET WITH NO
SIGNIFICANT WEATHER AND/OR OBSTRUCTIONS TO VISIBILITY.

WIZ001-002-006>008-014>016-023>028-281300-
NORTHWEST WISCONSIN

CITY           SKY/WX    TMP DP  RH WIND       PRES   REMARKS
SUPERIOR ARPT  CLOUDY    37  31  77 NE12G20   30.06R WCI  30
6HR MIN TEMP:  37; 6HR MAX TEMP:  37;

ASHLAND        CLOUDY    38  26  62 NE8       30.06R WCI  32
6HR MIN TEMP:  37; 6HR MAX TEMP:  39;

HAYWARD        CLOUDY    41  13  31 NE9       29.99F
6HR MIN TEMP:  39; 6HR MAX TEMP:  41;

SIREN          CLOUDY    41  14  32 NE8       29.96S
6HR MIN TEMP:  40; 6HR MAX TEMP:  42;

CUMBERLAND     CLOUDY    37  21  52 NE12G20   29.93F WCI  30
RICE LAKE      CLOUDY    40  20  44 NE10      29.94F WCI  34
6HR MIN TEMP:  39; 6HR MAX TEMP:  45;

CHETEK         CLOUDY    40  20  43 NE7G18    29.93S
6HR MIN TEMP:  40; 6HR MAX TEMP:  46; 6HR PCP:  0.04;

LADYSMITH      CLOUDY    40  16  36 NE12      29.97S WCI  33
6HR MIN TEMP:  40; 6HR MAX TEMP:  45;

EAU CLAIRE     LGT RAIN  41  21  44 E10       29.92R
6HR MIN TEMP:  40; 6HR MAX TEMP:  42; 6HR PCP:  0.10;

MENOMONIE      CLOUDY    38  37  97 E8        29.93R WCI  32
6HR MIN TEMP:  38; 6HR MAX TEMP:  41; 6HR PCP:  0.16;

NEW RICHMOND   CLOUDY    37  30  77 NE7       29.94R WCI  31
6HR MIN TEMP:  36; 6HR MAX TEMP:  43; 6HR PCP:  0.16;

OSCEOLA        DRIZZLE   39  29  66 NE5       29.99R
6HR MIN TEMP:  38; 6HR MAX TEMP:  44; 6HR PCP:  0.05;

$$

WIZ003>005-009-010-017-018-281300-
NORTH CENTRAL WISCONSIN

CITY           SKY/WX    TMP DP  RH WIND       PRES   REMARKS
MANITOWISH WTR CLOUDY    37  15  40 E7        30.01R WCI  32
6HR MIN TEMP:  36; 6HR MAX TEMP:  37;

ARBOR VITAE    CLOUDY    39  15  36 E5        30.00S
6HR MIN TEMP:  39; 6HR MAX TEMP:  39;

WOODRUFF       CLOUDY    39  15  36 E5        30.00S
6HR MIN TEMP:  39; 6HR MAX TEMP:  39;

RHINELANDER    CLOUDY    37  15  40 E10       29.99S WCI  30
6HR MIN TEMP:  37; 6HR MAX TEMP:  39;

EAGLE RIVER    CLOUDY    37  15  42 E12G18    30.00S WCI  29
LAND O LAKES   CLOUDY    37  16  43 E8        30.03S WCI  30
6HR MIN TEMP:  35; 6HR MAX TEMP:  37;

PHILLIPS       CLOUDY    39  17  40 NE8       29.97F WCI  33
6HR MIN TEMP:  38; 6HR MAX TEMP:  41;

TOMAHAWK       CLOUDY    38  15  39 E7        29.98S WCI  32
6HR MIN TEMP:  37; 6HR MAX TEMP:  41;

MEDFORD        CLOUDY    38  18  44 NE10G20   29.92F WCI  31
6HR MIN TEMP:  37; 6HR MAX TEMP:  42;

MERRILL        CLOUDY    39  18  42 E8        29.98S WCI  34
$$

WIZ029-030-035-036-043>047-281300-
CENTRAL WISCONSIN

CITY           SKY/WX    TMP DP  RH WIND       PRES   REMARKS
WAUSAU         CLOUDY    40  19  43 E12       29.95S WCI  33
6HR MIN TEMP:  40; 6HR MAX TEMP:  44;

MOSINEE        CLOUDY    37  19  48 E16       29.95S WCI  28
MARSHFIELD     CLOUDY    39  19  44 E20G28    29.90S WCI  29
6HR MIN TEMP:  39; 6HR MAX TEMP:  44;

STEVENS POINT  CLOUDY    37  22  54 E12G18    29.95R WCI  29
6HR MIN TEMP:  36; 6HR MAX TEMP:  41;

WAUPACA        LGT RAIN  39  32  76 NE9       29.96S WCI  33
6HR MIN TEMP:  39; 6HR MAX TEMP:  44;

WAUTOMA        NOT AVBL
WISC RAPIDS    CLOUDY    40  21  46 E16G24    29.92F WCI  31
6HR MIN TEMP:  39; 6HR MAX TEMP:  44;

CAMP DOUGLAS   CLOUDY    41  32  70 E12       29.87S
$$

WIZ011>013-019>022-031-037>040-048>050-281300-
NORTHEAST WISCONSIN

CITY           SKY/WX    TMP DP  RH WIND       PRES   REMARKS
ANTIGO         CLOUDY    36  20  52 E6        29.98R WCI  31
6HR MIN TEMP:  36; 6HR MAX TEMP:  39;

SHAWANO        CLOUDY    39  29  68 NE12      30.00R WCI  32
6HR MIN TEMP:  38; 6HR MAX TEMP:  42;

OCONTO         CLOUDY    39  31  73 NE7       30.02R WCI  34
6HR MIN TEMP:  37; 6HR MAX TEMP:  39;

STURGEON BAY   CLOUDY    39  27  60 E12G18    30.03S WCI  32
6HR MIN TEMP:  37; 6HR MAX TEMP:  39;

GREEN BAY      CLOUDY    40  32  73 NE15      29.98R WCI  32
6HR MIN TEMP:  40; 6HR MAX TEMP:  42; 6HR PCP: TRACE;

MANITOWOC      LGT RAIN  42  30  62 NE9       29.98R
6HR MIN TEMP:  40; 6HR MAX TEMP:  42; 6HR PCP: TRACE;

APPLETON       PTSUNNY   39  27  60 NE12G18   29.95R WCI  32
CLINTONVILLE   CLOUDY    37  27  65 NE8       29.99R WCI  31
OSHKOSH        CLOUDY    42  29  59 E16G22    29.94S
6HR MIN TEMP:  41; 6HR MAX TEMP:  43;

$$

WIZ032>034-041-042-053>061-281300-
SOUTHWEST WISCONSIN

CITY           SKY/WX    TMP DP  RH WIND       PRES   REMARKS
LA CROSSE      CLOUDY    41  33  73 NE5       29.88R
6HR MIN TEMP:  40; 6HR MAX TEMP:  44; 6HR PCP:  0.07;

SPARTA         LGT RAIN  40  31  72 E7        29.89R WCI  35
6HR MIN TEMP:  40; 6HR MAX TEMP:  42; 6HR PCP:  0.01;

VIROQUA        CLOUDY    39  32  76 E12       29.85R WCI  32
6HR MIN TEMP:  38; 6HR MAX TEMP:  40;

BOSCOBEL       CLOUDY    45  34  65 NE9       29.86R
6HR MIN TEMP:  42; 6HR MAX TEMP:  45; 6HR PCP:  0.03;

PRAIRIE DU CHI CLOUDY    43  35  73 E6        29.84R
6HR MIN TEMP:  42; 6HR MAX TEMP:  44; 6HR PCP:  0.02;

PLATTEVILLE    CLOUDY    44  42  93 E7        29.83R
6HR MIN TEMP:  42; 6HR MAX TEMP:  45; 6HR PCP:  0.05;

$$

WIZ056-057-062-063-064-067-068-281300-
SOUTH CENTRAL WISCONSIN

CITY           SKY/WX    TMP DP  RH WIND       PRES   REMARKS
REEDSBURG      CLOUDY    40  32  70 E7G17     29.87R
6HR MIN TEMP:  40; 6HR MAX TEMP:  43; 6HR PCP:  0.01;

BARABOO/DELLS  DRIZZLE   40  32  74 E8        29.87R WCI  34
6HR MIN TEMP:  39; 6HR MAX TEMP:  42;

LONE ROCK      CLOUDY    42  34  73 E10       29.86R
6HR MIN TEMP:  40; 6HR MAX TEMP:  44; 6HR PCP:  0.08;

MINERAL POINT  CLOUDY    43  41  93 E8        29.84R
MADISON        LGT RAIN  42  35  76 E5        29.85R
6HR MIN TEMP:  40; 6HR MAX TEMP:  44; 6HR PCP:  0.17;

MIDDLETON      CLOUDY    42  36  78 E10G18    29.84S
6HR MIN TEMP:  41; 6HR MAX TEMP:  45; 6HR PCP:  0.07;

WATERTOWN      CLOUDY    43  30  58 E22G31    29.86R
6HR MIN TEMP:  43; 6HR MAX TEMP:  45;

MONROE         LGT RAIN  41  41 100 E9        29.83R
JANESVILLE     CLOUDY    45  43  93 E17       29.85R
$$

WIZ051-052-058>065-066-070>072-281300-
SOUTHEAST WISCONSIN

CITY           SKY/WX    TMP DP  RH WIND       PRES   REMARKS
MILWAUKEE      LGT RAIN  39  33  79 E15       29.92R WCI  31
6HR MIN TEMP:  39; 6HR MAX TEMP:  46; 6HR PCP:  0.01;

WAUKESHA       CLOUDY    37  30  75 E12G23    29.91R WCI  30
MILWAUKEE/TIMM LGT RAIN  39  30  70 NE13G21   29.93R WCI  32
RACINE         LGT RAIN  39  34  82 E17G24    29.91R WCI  30
6HR MIN TEMP:  39; 6HR MAX TEMP:  48; 6HR PCP:  0.33;

BURLINGTON     CLOUDY    38  35  89 E16G23    29.88S WCI  29
6HR MIN TEMP:  38; 6HR MAX TEMP:  46; 6HR PCP:  0.01;

KENOSHA        CLOUDY    39  35  86 NE16      29.87S WCI  30
6HR MIN TEMP:  39; 6HR MAX TEMP:  48; 6HR PCP:  0.57;

FOND DU LAC    CLOUDY    44  26  49 E16       29.93S
6HR MIN TEMP:  41; 6HR MAX TEMP:  44; 6HR PCP: TRACE;

SHEBOYGAN      CLOUDY    43  24  47 E13       29.95R
6HR MIN TEMP:  40; 6HR MAX TEMP:  43;

WEST BEND      CLOUDY    41  27  56 E9        29.93R
JUNEAU         CLOUDY    44  27  52 E14G24    29.89S
6HR MIN TEMP:  41; 6HR MAX TEMP:  44;

$$

LSZ147-162-281300-
LAKE SUPERIOR

STATION/POSITION TIME  TEMP    WIND        PRES    WAVE
                       AIR SEA DIR/SP/G            HT/PER
                 (UTC) (F)     (DEG/KT/KT) (MB)    (FT/S)
W MID LAKE BUOY  1150   38 36   70/ 14/ 16 1020.4R   2/ 4
DEVILS ISLAND    1200   38      70/ 18/ 21 1019.8R
SAXON HARBOR     1100   39      40/ 10/ 11 1017.3R
$$

LMZ867-665-643>646-281300-
LAKE MICHIGAN

STATION/POSITION TIME  TEMP    WIND        PRES    WAVE
                       AIR SEA DIR/SP/G            HT/PER
                 (UTC) (F)     (DEG/KT/KT) (MB)    (FT/S)
CHAMBERS ISLAND  1100   38      30/ 14/ 16 1016.9S
N MID LAKE BUOY  1150   38 38   60/ 12/ 14 1017.9R   2/ 4
NORTHPORT PIER   1100   38      50/ 11/ 15 1017.3R
ALGOMA LAKESHORE C1F1C2F2C3F3C4F4C5F5C6F6C7F7C8M1C9M2Ca!



USA.gov is the U.S. government's official web portal to all federal, state and local government web resources and services.